| time (UTC) | temp C | wind direction | speed KPH | gust KPH | rain 1hr cm | rain 24hr cm | rain mn cm | humidity % | barometer mb |
| 20260507141416 | 12 | 57 | 0.0 | 0.0 | 0.00 | 0.00 | 0.00 | 93 | 1017.1 |
| 20260507140912 | 13 | 81 | 0.0 | 0.0 | 0.00 | 0.00 | 0.00 | 93 | 1016.9 |
| 20260507140409 | 12 | 97 | 0.0 | 0.0 | 0.00 | 0.00 | 0.00 | 93 | 1017.0 |
| 20260507135907 | 12 | 67 | 0.0 | 0.0 | 0.00 | 0.00 | 0.00 | 93 | 1016.9 |
| 20260507135403 | 12 | 81 | 0.0 | 0.0 | 0.00 | 0.00 | 0.00 | 93 | 1017.0 |
| 20260507134901 | 12 | 55 | 1.6 | 3.2 | 0.00 | 0.00 | 0.00 | 93 | 1016.7 |
| 20260507134357 | 12 | 89 | 0.0 | 0.0 | 0.00 | 0.00 | 0.00 | 93 | 1016.8 |
| 20260507133853 | 12 | 82 | 0.0 | 0.0 | 0.00 | 0.00 | 0.00 | 93 | 1016.7 |
| 20260507133348 | 12 | 88 | 0.0 | 0.0 | 0.00 | 0.00 | 0.00 | 93 | 1016.8 |
| 20260507132848 | 12 | 83 | 0.0 | 0.0 | 0.00 | 0.00 | 0.00 | 93 | 1016.9 |
| 20260507132343 | 12 | 86 | 0.0 | 0.0 | 0.00 | 0.00 | 0.00 | 93 | 1016.9 |
| 20260507131841 | 11 | 264 | 0.0 | 0.0 | 0.00 | 0.00 | 0.00 | 93 | 1016.9 |
| 20260507131337 | 11 | 110 | 0.0 | 0.0 | 0.00 | 0.00 | 0.00 | 93 | 1016.7 |
| 20260507130834 | 11 | 78 | 0.0 | 0.0 | 0.00 | 0.00 | 0.00 | 93 | 1016.7 |
| 20260507130331 | 11 | 90 | 0.0 | 0.0 | 0.00 | 0.00 | 0.00 | 93 | 1016.3 |
| 20260507125831 | 11 | 79 | 0.0 | 0.0 | 0.00 | 0.00 | 0.00 | 93 | 1016.6 |
| 20260507125327 | 11 | 79 | 0.0 | 0.0 | 0.00 | 0.00 | 0.00 | 93 | 1016.4 |
| 20260507124825 | 11 | 78 | 0.0 | 0.0 | 0.00 | 0.00 | 0.00 | 93 | 1016.3 |
| 20260507124321 | 11 | 106 | 0.0 | 0.0 | 0.00 | 0.00 | 0.00 | 93 | 1016.4 |
| 20260507123820 | 11 | 102 | 0.0 | 0.0 | 0.00 | 0.00 | 0.00 | 93 | 1016.6 |
| 20260507123316 | 11 | 102 | 0.0 | 0.0 | 0.00 | 0.00 | 0.00 | 93 | 1016.3 |
| 20260507122812 | 10 | 102 | 0.0 | 0.0 | 0.00 | 0.00 | 0.00 | 93 | 1016.3 |
| 20260507122308 | 10 | 102 | 0.0 | 0.0 | 0.00 | 0.00 | 0.00 | 93 | 1016.5 |
| 20260507121804 | 10 | 102 | 0.0 | 0.0 | 0.00 | 0.00 | 0.00 | 93 | 1016.5 |
| 20260507121300 | 10 | 102 | 0.0 | 0.0 | 0.00 | 0.00 | 0.00 | 92 | 1016.3 |
| 20260507120756 | 10 | 102 | 0.0 | 0.0 | 0.00 | 0.00 | 0.00 | 92 | 1016.3 |
| 20260507120253 | 10 | 102 | 0.0 | 0.0 | 0.00 | 0.00 | 0.00 | 92 | 1016.1 |
| 20260507115749 | 10 | 102 | 0.0 | 0.0 | 0.00 | 0.00 | 0.00 | 91 | 1016.3 |
| 20260507115245 | 10 | 102 | 0.0 | 0.0 | 0.00 | 0.00 | 0.00 | 91 | 1016.2 |
| 20260507114741 | 9 | 102 | 0.0 | 0.0 | 0.00 | 0.00 | 0.00 | 91 | 1016.4 |
| 20260507114238 | 10 | 103 | 0.0 | 0.0 | 0.00 | 0.00 | 0.00 | 91 | 1016.3 |
| 20260507113736 | 10 | 98 | 0.0 | 0.0 | 0.00 | 0.00 | 0.00 | 91 | 1016.5 |
| 20260507113233 | 10 | 98 | 0.0 | 0.0 | 0.00 | 0.00 | 0.00 | 91 | 1016.4 |
| 20260507112731 | 10 | 98 | 0.0 | 0.0 | 0.00 | 0.00 | 0.00 | 91 | 1016.3 |
| 20260507112227 | 10 | 98 | 0.0 | 0.0 | 0.00 | 0.00 | 0.00 | 91 | 1016.5 |
| 20260507111725 | 10 | 98 | 0.0 | 0.0 | 0.00 | 0.00 | 0.00 | 91 | 1016.4 |
| 20260507111221 | 10 | 98 | 0.0 | 0.0 | 0.00 | 0.00 | 0.00 | 91 | 1016.4 |
| 20260507110717 | 10 | 98 | 0.0 | 0.0 | 0.00 | 0.00 | 0.00 | 91 | 1016.4 |
| 20260507110214 | 10 | 98 | 0.0 | 0.0 | 0.00 | 0.00 | 0.00 | 91 | 1016.3 |
| 20260507105711 | 10 | 98 | 0.0 | 0.0 | 0.00 | 0.00 | 0.00 | 91 | 1016.5 |
| 20260507105207 | 10 | 98 | 0.0 | 0.0 | 0.00 | 0.00 | 0.00 | 91 | 1016.6 |
| 20260507104704 | 10 | 98 | 0.0 | 0.0 | 0.00 | 0.00 | 0.00 | 91 | 1016.6 |
| 20260507104201 | 10 | 98 | 0.0 | 0.0 | 0.00 | 0.00 | 0.00 | 90 | 1016.6 |
| 20260507103656 | 10 | 98 | 0.0 | 0.0 | 0.00 | 0.00 | 0.00 | 89 | 1016.6 |
| 20260507103153 | 10 | 98 | 0.0 | 0.0 | 0.00 | 0.00 | 0.00 | 89 | 1016.4 |
| 20260507102650 | 10 | 98 | 0.0 | 0.0 | 0.00 | 0.00 | 0.00 | 89 | 1016.9 |
| 20260507102146 | 10 | 98 | 0.0 | 0.0 | 0.00 | 0.00 | 0.00 | 89 | 1016.9 |
| 20260507101642 | 10 | 98 | 0.0 | 0.0 | 0.00 | 0.00 | 0.00 | 89 | 1016.8 |
| 20260507101138 | 10 | 98 | 0.0 | 0.0 | 0.00 | 0.00 | 0.00 | 89 | 1016.8 |
| 20260507100635 | 10 | 98 | 0.0 | 0.0 | 0.00 | 0.00 | 0.00 | 88 | 1016.5 |
| 20260507100134 | 10 | 98 | 0.0 | 0.0 | 0.00 | 0.00 | 0.00 | 88 | 1016.7 |
| 20260507095631 | 10 | 99 | 0.0 | 0.0 | 0.00 | 0.00 | 0.00 | 88 | 1016.9 |
| 20260507095127 | 10 | 99 | 0.0 | 0.0 | 0.00 | 0.00 | 0.00 | 88 | 1016.9 |
| 20260507094624 | 10 | 99 | 0.0 | 0.0 | 0.00 | 0.00 | 0.00 | 88 | 1016.9 |
| 20260507094121 | 10 | 99 | 0.0 | 0.0 | 0.00 | 0.00 | 0.00 | 88 | 1017.1 |
| 20260507093618 | 10 | 98 | 0.0 | 0.0 | 0.00 | 0.00 | 0.00 | 88 | 1017.0 |
| 20260507093117 | 10 | 99 | 0.0 | 0.0 | 0.00 | 0.00 | 0.00 | 87 | 1017.0 |
| 20260507092613 | 10 | 99 | 0.0 | 0.0 | 0.00 | 0.00 | 0.00 | 86 | 1016.9 |
| 20260507092110 | 10 | 99 | 0.0 | 0.0 | 0.00 | 0.00 | 0.00 | 86 | 1017.0 |
| 20260507091607 | 10 | 99 | 0.0 | 0.0 | 0.00 | 0.00 | 0.00 | 86 | 1017.3 |
| 20260507091103 | 10 | 99 | 0.0 | 0.0 | 0.00 | 0.00 | 0.00 | 86 | 1017.2 |
| 20260507090558 | 10 | 99 | 0.0 | 0.0 | 0.00 | 0.00 | 0.00 | 86 | 1017.3 |
| 20260507090055 | 10 | 99 | 0.0 | 0.0 | 0.00 | 0.00 | 0.00 | 85 | 1017.1 |
| 20260507085553 | 10 | 100 | 0.0 | 0.0 | 0.00 | 0.00 | 0.00 | 85 | 1017.0 |
| 20260507085049 | 10 | 95 | 0.0 | 0.0 | 0.00 | 0.00 | 0.00 | 85 | 1017.4 |
| 20260507084546 | 10 | 95 | 0.0 | 0.0 | 0.00 | 0.00 | 0.00 | 85 | 1017.3 |
| 20260507084043 | 10 | 95 | 0.0 | 0.0 | 0.00 | 0.00 | 0.00 | 85 | 1017.3 |
| 20260507083539 | 10 | 97 | 0.0 | 0.0 | 0.00 | 0.00 | 0.00 | 84 | 1017.4 |
| 20260507083037 | 11 | 90 | 0.0 | 0.0 | 0.00 | 0.00 | 0.00 | 84 | 1017.4 |
| 20260507082532 | 11 | 90 | 0.0 | 0.0 | 0.00 | 0.00 | 0.00 | 84 | 1017.5 |
| 20260507082029 | 11 | 94 | 0.0 | 0.0 | 0.00 | 0.00 | 0.00 | 84 | 1017.4 |
| 20260507081525 | 11 | 75 | 0.0 | 0.0 | 0.00 | 0.00 | 0.00 | 84 | 1017.6 |
| 20260507081022 | 11 | 75 | 0.0 | 0.0 | 0.00 | 0.00 | 0.00 | 84 | 1017.7 |
| 20260507080518 | 11 | 75 | 0.0 | 0.0 | 0.00 | 0.00 | 0.00 | 84 | 1017.6 |
| 20260507080015 | 11 | 76 | 0.0 | 0.0 | 0.00 | 0.00 | 0.00 | 84 | 1017.6 |
| 20260507075510 | 11 | 75 | 0.0 | 0.0 | 0.00 | 0.00 | 0.00 | 84 | 1017.7 |
| 20260507075007 | 11 | 76 | 0.0 | 0.0 | 0.00 | 0.00 | 0.00 | 84 | 1017.7 |
| 20260507074503 | 11 | 76 | 0.0 | 0.0 | 0.00 | 0.00 | 0.00 | 84 | 1017.8 |
| 20260507074002 | 11 | 75 | 0.0 | 0.0 | 0.00 | 0.00 | 0.00 | 83 | 1017.9 |
| 20260507073457 | 11 | 75 | 0.0 | 0.0 | 0.00 | 0.00 | 0.00 | 83 | 1017.8 |
| 20260507072954 | 11 | 75 | 0.0 | 0.0 | 0.00 | 0.00 | 0.00 | 82 | 1017.8 |
| 20260507072452 | 11 | 75 | 0.0 | 0.0 | 0.00 | 0.00 | 0.00 | 82 | 1017.7 |
| 20260507071949 | 11 | 75 | 0.0 | 0.0 | 0.00 | 0.00 | 0.00 | 82 | 1018.1 |
| 20260507071446 | 11 | 75 | 0.0 | 0.0 | 0.00 | 0.00 | 0.00 | 82 | 1017.8 |
| 20260507070943 | 11 | 75 | 0.0 | 0.0 | 0.00 | 0.00 | 0.00 | 82 | 1018.1 |
| 20260507070440 | 11 | 77 | 0.0 | 0.0 | 0.00 | 0.00 | 0.00 | 82 | 1017.8 |
| 20260507065936 | 11 | 77 | 0.0 | 0.0 | 0.00 | 0.00 | 0.00 | 82 | 1018.0 |
| 20260507065433 | 12 | 77 | 0.0 | 0.0 | 0.00 | 0.00 | 0.00 | 82 | 1017.9 |
| 20260507064931 | 11 | 76 | 0.0 | 0.0 | 0.00 | 0.00 | 0.00 | 81 | 1017.8 |
| 20260507064429 | 12 | 94 | 0.0 | 0.0 | 0.00 | 0.00 | 0.00 | 81 | 1017.9 |
| 20260507063926 | 12 | 129 | 0.0 | 0.0 | 0.00 | 0.00 | 0.00 | 81 | 1017.9 |
| 20260507063423 | 12 | 77 | 0.0 | 0.0 | 0.00 | 0.00 | 0.00 | 81 | 1018.0 |
| 20260507062920 | 12 | 77 | 0.0 | 0.0 | 0.00 | 0.00 | 0.00 | 81 | 1017.8 |
| 20260507062417 | 12 | 77 | 0.0 | 0.0 | 0.00 | 0.00 | 0.00 | 81 | 1017.9 |
| 20260507061909 | 12 | 77 | 0.0 | 0.0 | 0.00 | 0.00 | 0.00 | 80 | 1018.0 |
| 20260507061407 | 12 | 77 | 0.0 | 0.0 | 0.00 | 0.00 | 0.00 | 80 | 1018.0 |
| 20260507060905 | 12 | 77 | 0.0 | 0.0 | 0.00 | 0.00 | 0.00 | 80 | 1018.0 |
| 20260507060401 | 12 | 77 | 0.0 | 0.0 | 0.00 | 0.00 | 0.00 | 80 | 1018.0 |
| 20260507055858 | 12 | 77 | 0.0 | 0.0 | 0.00 | 0.00 | 0.00 | 80 | 1018.0 |
| 20260507055353 | 12 | 78 | 0.0 | 0.0 | 0.00 | 0.00 | 0.00 | 79 | 1017.9 |
| 20260507054850 | 13 | 77 | 0.0 | 0.0 | 0.00 | 0.00 | 0.00 | 79 | 1018.3 |
| 20260507054346 | 13 | 77 | 0.0 | 0.0 | 0.00 | 0.00 | 0.00 | 78 | 1017.9 |
| 20260507053844 | 13 | 78 | 0.0 | 0.0 | 0.00 | 0.00 | 0.00 | 78 | 1017.8 |
| 20260507053341 | 13 | 62 | 0.0 | 0.0 | 0.00 | 0.00 | 0.00 | 78 | 1017.9 |
| 20260507052840 | 13 | 92 | 0.0 | 0.0 | 0.00 | 0.00 | 0.00 | 78 | 1017.9 |
| 20260507052336 | 13 | 94 | 0.0 | 0.0 | 0.00 | 0.00 | 0.00 | 77 | 1017.8 |
| 20260507051834 | 13 | 88 | 0.0 | 0.0 | 0.00 | 0.00 | 0.00 | 77 | 1017.9 |
| 20260507051331 | 14 | 120 | 0.0 | 0.0 | 0.00 | 0.00 | 0.00 | 77 | 1018.0 |
| 20260507050828 | 14 | 125 | 0.0 | 0.0 | 0.00 | 0.00 | 0.00 | 78 | 1017.9 |
| 20260507050324 | 14 | 83 | 0.0 | 0.0 | 0.00 | 0.00 | 0.00 | 78 | 1017.9 |
| 20260507045822 | 14 | 105 | 0.0 | 0.0 | 0.00 | 0.00 | 0.00 | 78 | 1017.9 |
| 20260507045318 | 14 | 82 | 0.0 | 0.0 | 0.00 | 0.00 | 0.00 | 77 | 1017.8 |
| 20260507044815 | 14 | 76 | 0.0 | 0.0 | 0.00 | 0.00 | 0.00 | 77 | 1017.8 |
| 20260507044312 | 14 | 80 | 0.0 | 0.0 | 0.00 | 0.00 | 0.00 | 77 | 1017.8 |
| 20260507043808 | 15 | 98 | 0.0 | 0.0 | 0.00 | 0.00 | 0.00 | 77 | 1017.8 |
| 20260507043304 | 14 | 65 | 0.0 | 0.0 | 0.00 | 0.00 | 0.00 | 77 | 1017.8 |
| 20260507042801 | 14 | 78 | 0.0 | 0.0 | 0.00 | 0.00 | 0.00 | 76 | 1017.9 |
| 20260507042256 | 14 | 83 | 0.0 | 0.0 | 0.00 | 0.00 | 0.00 | 75 | 1017.6 |
| 20260507041754 | 14 | 65 | 0.0 | 0.0 | 0.00 | 0.00 | 0.00 | 75 | 1017.8 |
| 20260507041250 | 15 | 75 | 0.0 | 0.0 | 0.00 | 0.00 | 0.00 | 75 | 1017.7 |
| 20260507040747 | 15 | 67 | 0.0 | 0.0 | 0.00 | 0.00 | 0.00 | 75 | 1017.8 |
| 20260507040243 | 15 | 69 | 0.0 | 0.0 | 0.00 | 0.00 | 0.00 | 74 | 1017.6 |
| 20260507035739 | 15 | 71 | 0.0 | 0.0 | 0.00 | 0.00 | 0.00 | 74 | 1017.7 |
| 20260507035234 | 14 | 75 | 0.0 | 0.0 | 0.00 | 0.00 | 0.00 | 72 | 1017.6 |
| 20260507034733 | 15 | 82 | 0.0 | 0.0 | 0.00 | 0.00 | 0.00 | 71 | 1017.7 |
| 20260507034229 | 15 | 83 | 0.0 | 0.0 | 0.00 | 0.00 | 0.00 | 71 | 1017.5 |
| 20260507033728 | 15 | 79 | 0.0 | 0.0 | 0.00 | 0.00 | 0.00 | 71 | 1017.4 |
| 20260507033225 | 15 | 61 | 0.0 | 0.0 | 0.00 | 0.00 | 0.00 | 70 | 1017.3 |
| 20260507032722 | 15 | 72 | 0.0 | 0.0 | 0.00 | 0.00 | 0.00 | 69 | 1017.2 |
| 20260507032218 | 15 | 92 | 0.0 | 0.0 | 0.00 | 0.00 | 0.00 | 68 | 1017.5 |
| 20260507031715 | 15 | 89 | 0.0 | 0.0 | 0.00 | 0.00 | 0.00 | 67 | 1017.4 |
| 20260507031212 | 15 | 88 | 0.0 | 0.0 | 0.00 | 0.00 | 0.00 | 67 | 1017.2 |
| 20260507030708 | 15 | 70 | 0.0 | 0.0 | 0.00 | 0.00 | 0.00 | 66 | 1017.2 |
| 20260507030206 | 16 | 75 | 0.0 | 0.0 | 0.00 | 0.00 | 0.00 | 66 | 1017.2 |
| 20260507025703 | 16 | 72 | 0.0 | 0.0 | 0.00 | 0.00 | 0.00 | 65 | 1017.2 |
| 20260507025200 | 16 | 54 | 0.0 | 1.6 | 0.00 | 0.00 | 0.00 | 65 | 1017.1 |
| 20260507024658 | 16 | 71 | 0.0 | 0.0 | 0.00 | 0.00 | 0.00 | 64 | 1017.0 |
| 20260507024155 | 16 | 56 | 1.6 | 1.6 | 0.00 | 0.00 | 0.00 | 64 | 1017.1 |
| 20260507023650 | 16 | 95 | 0.0 | 0.0 | 0.00 | 0.00 | 0.00 | 63 | 1017.2 |
| 20260507023148 | 16 | 138 | 1.6 | 1.6 | 0.00 | 0.00 | 0.00 | 62 | 1017.1 |
| 20260507022645 | 17 | 91 | 1.6 | 1.6 | 0.00 | 0.00 | 0.00 | 61 | 1016.9 |
| 20260507022140 | 17 | 116 | 1.6 | 1.6 | 0.00 | 0.00 | 0.00 | 61 | 1016.9 |
| 20260507021637 | 17 | 55 | 0.0 | 1.6 | 0.00 | 0.00 | 0.00 | 60 | 1017.0 |
| 20260507021132 | 17 | 147 | 1.6 | 1.6 | 0.00 | 0.00 | 0.00 | 59 | 1017.0 |
| 20260507020631 | 17 | 83 | 0.0 | 0.0 | 0.00 | 0.00 | 0.00 | 59 | 1016.8 |
| 20260507020127 | 17 | 114 | 1.6 | 1.6 | 0.00 | 0.00 | 0.00 | 58 | 1016.9 |
| 20260507015625 | 18 | 94 | 4.8 | 4.8 | 0.00 | 0.00 | 0.00 | 57 | 1016.9 |
| 20260507015122 | 18 | 169 | 4.8 | 4.8 | 0.00 | 0.00 | 0.00 | 57 | 1016.7 |
| 20260507014619 | 18 | 23 | 1.6 | 1.6 | 0.00 | 0.00 | 0.00 | 56 | 1016.6 |
| 20260507014115 | 18 | 83 | 1.6 | 1.6 | 0.00 | 0.00 | 0.00 | 57 | 1016.8 |
| 20260507013612 | 18 | 32 | 0.0 | 1.6 | 0.00 | 0.00 | 0.00 | 57 | 1016.7 |
| 20260507013109 | 18 | 276 | 4.8 | 4.8 | 0.00 | 0.00 | 0.00 | 57 | 1016.5 |
| 20260507012606 | 18 | 2 | 3.2 | 3.2 | 0.00 | 0.00 | 0.00 | 57 | 1016.8 |
| 20260507012101 | 18 | 326 | 0.0 | 1.6 | 0.00 | 0.00 | 0.00 | 55 | 1016.6 |
| 20260507011600 | 18 | 358 | 1.6 | 1.6 | 0.00 | 0.00 | 0.00 | 55 | 1016.7 |
| 20260507011056 | 18 | 6 | 1.6 | 1.6 | 0.00 | 0.00 | 0.00 | 55 | 1016.4 |
| 20260507010550 | 19 | 102 | 1.6 | 1.6 | 0.00 | 0.00 | 0.00 | 55 | 1016.8 |
| 20260507010047 | 19 | 46 | 0.0 | 1.6 | 0.00 | 0.00 | 0.00 | 55 | 1016.5 |
| 20260507005544 | 20 | 43 | 1.6 | 1.6 | 0.00 | 0.00 | 0.00 | 55 | 1016.5 |
| 20260507005040 | 19 | 204 | 1.6 | 3.2 | 0.00 | 0.00 | 0.00 | 57 | 1016.5 |
| 20260507004538 | 19 | 323 | 1.6 | 1.6 | 0.00 | 0.00 | 0.00 | 58 | 1016.5 |
| 20260507004035 | 19 | 323 | 3.2 | 4.8 | 0.00 | 0.00 | 0.00 | 56 | 1016.5 |
| 20260507003531 | 20 | 53 | 1.6 | 1.6 | 0.00 | 0.00 | 0.00 | 56 | 1016.6 |
| 20260507003026 | 19 | 301 | 1.6 | 3.2 | 0.00 | 0.00 | 0.00 | 56 | 1016.5 |
| 20260507002523 | 20 | 235 | 3.2 | 3.2 | 0.00 | 0.00 | 0.00 | 56 | 1016.6 |
| 20260507002019 | 20 | 218 | 3.2 | 3.2 | 0.00 | 0.00 | 0.00 | 55 | 1016.3 |
| 20260507001515 | 20 | 286 | 3.2 | 3.2 | 0.00 | 0.00 | 0.00 | 56 | 1016.3 |
| 20260507001013 | 20 | 336 | 4.8 | 8.0 | 0.00 | 0.00 | 0.00 | 54 | 1016.3 |
| 20260507000509 | 20 | 219 | 3.2 | 4.8 | 0.00 | 0.00 | 0.00 | 54 | 1016.3 |
| 20260507000005 | 20 | 147 | 3.2 | 3.2 | 0.00 | 0.00 | 0.00 | 53 | 1016.3 |
| 20260506235502 | 20 | 148 | 3.2 | 3.2 | 0.00 | 0.00 | 0.00 | 53 | 1016.4 |
| 20260506234958 | 20 | 245 | 6.4 | 9.7 | 0.00 | 0.00 | 0.00 | 53 | 1016.0 |
| 20260506234455 | 20 | 291 | 1.6 | 1.6 | 0.00 | 0.00 | 0.00 | 53 | 1016.4 |
| 20260506233952 | 20 | 62 | 3.2 | 4.8 | 0.00 | 0.00 | 0.00 | 53 | 1016.1 |
| 20260506233449 | 20 | 48 | 3.2 | 4.8 | 0.00 | 0.00 | 0.00 | 54 | 1016.1 |
| 20260506232945 | 20 | 61 | 4.8 | 4.8 | 0.00 | 0.00 | 0.00 | 53 | 1016.1 |
| 20260506232442 | 20 | 261 | 6.4 | 8.0 | 0.00 | 0.00 | 0.00 | 54 | 1016.4 |
| 20260506231938 | 20 | 331 | 6.4 | 9.7 | 0.00 | 0.00 | 0.00 | 53 | 1016.1 |
| 20260506231436 | 20 | 224 | 4.8 | 4.8 | 0.00 | 0.00 | 0.00 | 52 | 1016.4 |
| 20260506230932 | 20 | 296 | 1.6 | 3.2 | 0.00 | 0.00 | 0.00 | 53 | 1016.3 |
| 20260506230428 | 20 | 302 | 4.8 | 4.8 | 0.00 | 0.00 | 0.00 | 53 | 1016.3 |
| 20260506225925 | 20 | 316 | 6.4 | 9.7 | 0.00 | 0.00 | 0.00 | 54 | 1016.5 |
| 20260506225423 | 20 | 161 | 3.2 | 3.2 | 0.00 | 0.00 | 0.00 | 53 | 1016.3 |
| 20260506224920 | 20 | 178 | 3.2 | 4.8 | 0.00 | 0.00 | 0.00 | 52 | 1016.6 |
| 20260506224417 | 20 | 79 | 0.0 | 1.6 | 0.00 | 0.00 | 0.00 | 54 | 1016.4 |
| 20260506223913 | 20 | 236 | 3.2 | 4.8 | 0.00 | 0.00 | 0.00 | 53 | 1016.4 |
| 20260506223409 | 20 | 79 | 3.2 | 4.8 | 0.00 | 0.00 | 0.00 | 53 | 1016.5 |
| 20260506222906 | 21 | 191 | 3.2 | 3.2 | 0.00 | 0.00 | 0.00 | 51 | 1016.5 |
| 20260506222402 | 21 | 266 | 4.8 | 4.8 | 0.00 | 0.00 | 0.00 | 50 | 1016.5 |
| 20260506221900 | 21 | 93 | 1.6 | 3.2 | 0.00 | 0.00 | 0.00 | 51 | 1016.5 |
| 20260506221356 | 21 | 287 | 3.2 | 4.8 | 0.00 | 0.00 | 0.00 | 51 | 1016.6 |
| 20260506220854 | 21 | 169 | 6.4 | 9.7 | 0.00 | 0.00 | 0.00 | 51 | 1016.7 |
| 20260506220349 | 21 | 238 | 3.2 | 4.8 | 0.00 | 0.00 | 0.00 | 51 | 1016.8 |
| 20260506215846 | 21 | 309 | 3.2 | 3.2 | 0.00 | 0.00 | 0.00 | 52 | 1016.6 |
| 20260506215342 | 21 | 63 | 3.2 | 3.2 | 0.00 | 0.00 | 0.00 | 52 | 1016.7 |
| 20260506214838 | 21 | 269 | 3.2 | 4.8 | 0.00 | 0.00 | 0.00 | 52 | 1016.6 |
| 20260506214335 | 21 | 292 | 4.8 | 4.8 | 0.00 | 0.00 | 0.00 | 52 | 1016.7 |
| 20260506213834 | 21 | 50 | 1.6 | 3.2 | 0.00 | 0.00 | 0.00 | 52 | 1016.8 |
| 20260506213330 | 22 | 118 | 3.2 | 4.8 | 0.00 | 0.00 | 0.00 | 51 | 1016.9 |
| 20260506212828 | 21 | 214 | 4.8 | 4.8 | 0.00 | 0.00 | 0.00 | 52 | 1017.0 |
| 20260506212323 | 22 | 322 | 3.2 | 3.2 | 0.00 | 0.00 | 0.00 | 51 | 1017.1 |
| 20260506211819 | 22 | 335 | 4.8 | 4.8 | 0.00 | 0.00 | 0.00 | 50 | 1016.9 |
| 20260506211315 | 22 | 31 | 3.2 | 4.8 | 0.00 | 0.00 | 0.00 | 51 | 1016.8 |
| 20260506210813 | 22 | 281 | 3.2 | 4.8 | 0.00 | 0.00 | 0.00 | 50 | 1017.0 |
| 20260506210309 | 22 | 84 | 1.6 | 3.2 | 0.00 | 0.00 | 0.00 | 51 | 1017.1 |
| 20260506205806 | 22 | 32 | 3.2 | 4.8 | 0.00 | 0.00 | 0.00 | 49 | 1016.9 |
| 20260506205305 | 22 | 85 | 1.6 | 3.2 | 0.00 | 0.00 | 0.00 | 50 | 1017.0 |
| 20260506204759 | 22 | 192 | 3.2 | 3.2 | 0.00 | 0.00 | 0.00 | 49 | 1016.9 |
| 20260506204256 | 21 | 302 | 6.4 | 9.7 | 0.00 | 0.00 | 0.00 | 50 | 1017.1 |
| 20260506203754 | 21 | 271 | 1.6 | 3.2 | 0.00 | 0.00 | 0.00 | 50 | 1017.0 |
| 20260506203251 | 22 | 195 | 3.2 | 3.2 | 0.00 | 0.00 | 0.00 | 50 | 1017.2 |
| 20260506202748 | 21 | 289 | 3.2 | 4.8 | 0.00 | 0.00 | 0.00 | 52 | 1017.2 |
| 20260506202245 | 21 | 323 | 4.8 | 8.0 | 0.00 | 0.00 | 0.00 | 50 | 1017.4 |
| 20260506201741 | 21 | 266 | 1.6 | 3.2 | 0.00 | 0.00 | 0.00 | 50 | 1017.2 |
| 20260506201238 | 22 | 316 | 1.6 | 1.6 | 0.00 | 0.00 | 0.00 | 48 | 1017.2 |
| 20260506200735 | 22 | 263 | 4.8 | 4.8 | 0.00 | 0.00 | 0.00 | 48 | 1017.2 |
| 20260506200232 | 22 | 82 | 1.6 | 1.6 | 0.00 | 0.00 | 0.00 | 48 | 1017.5 |
| 20260506195728 | 22 | 192 | 3.2 | 4.8 | 0.00 | 0.00 | 0.00 | 48 | 1017.2 |
| 20260506195225 | 23 | 215 | 1.6 | 3.2 | 0.00 | 0.00 | 0.00 | 45 | 1017.2 |
| 20260506194722 | 23 | 87 | 1.6 | 3.2 | 0.00 | 0.00 | 0.00 | 44 | 1017.1 |
| 20260506194218 | 23 | 328 | 3.2 | 3.2 | 0.00 | 0.00 | 0.00 | 45 | 1017.4 |
| 20260506193716 | 22 | 208 | 1.6 | 3.2 | 0.00 | 0.00 | 0.00 | 47 | 1017.5 |
| 20260506193213 | 22 | 68 | 1.6 | 1.6 | 0.00 | 0.00 | 0.00 | 46 | 1017.6 |
| 20260506192710 | 22 | 49 | 4.8 | 4.8 | 0.00 | 0.00 | 0.00 | 46 | 1017.7 |
| 20260506192206 | 22 | 296 | 4.8 | 4.8 | 0.00 | 0.00 | 0.00 | 46 | 1017.6 |
| 20260506191703 | 22 | 323 | 3.2 | 8.0 | 0.00 | 0.00 | 0.00 | 46 | 1017.7 |
| 20260506191159 | 22 | 184 | 9.7 | 11.3 | 0.00 | 0.00 | 0.00 | 45 | 1017.6 |
| 20260506190657 | 22 | 159 | 3.2 | 4.8 | 0.00 | 0.00 | 0.00 | 46 | 1017.6 |
| 20260506190153 | 21 | 312 | 3.2 | 4.8 | 0.00 | 0.00 | 0.00 | 47 | 1017.7 |
| 20260506185650 | 21 | 335 | 6.4 | 8.0 | 0.00 | 0.00 | 0.00 | 45 | 1018.0 |
| 20260506185146 | 21 | 193 | 6.4 | 8.0 | 0.00 | 0.00 | 0.00 | 47 | 1017.7 |
| 20260506184644 | 21 | 190 | 4.8 | 8.0 | 0.00 | 0.00 | 0.00 | 48 | 1018.0 |
| 20260506184141 | 21 | 207 | 1.6 | 3.2 | 0.00 | 0.00 | 0.00 | 46 | 1018.2 |
| 20260506183638 | 22 | 127 | 1.6 | 1.6 | 0.00 | 0.00 | 0.00 | 46 | 1017.9 |
| 20260506183134 | 22 | 237 | 4.8 | 9.7 | 0.00 | 0.00 | 0.00 | 44 | 1018.2 |
| 20260506182632 | 21 | 124 | 1.6 | 3.2 | 0.00 | 0.00 | 0.00 | 47 | 1018.2 |
| 20260506182128 | 21 | 29 | 1.6 | 1.6 | 0.00 | 0.00 | 0.00 | 45 | 1018.1 |
| 20260506181626 | 20 | 52 | 3.2 | 3.2 | 0.00 | 0.00 | 0.00 | 47 | 1018.2 |
| 20260506181123 | 21 | 297 | 4.8 | 4.8 | 0.00 | 0.00 | 0.00 | 45 | 1018.2 |
| 20260506180620 | 21 | 333 | 3.2 | 4.8 | 0.00 | 0.00 | 0.00 | 46 | 1018.4 |
| 20260506180116 | 20 | 313 | 6.4 | 8.0 | 0.00 | 0.00 | 0.00 | 48 | 1018.3 |
| 20260506175613 | 21 | 140 | 4.8 | 4.8 | 0.00 | 0.00 | 0.00 | 46 | 1018.4 |
| 20260506175109 | 21 | 302 | 1.6 | 3.2 | 0.00 | 0.00 | 0.00 | 47 | 1018.6 |
| 20260506174608 | 20 | 46 | 1.6 | 1.6 | 0.00 | 0.00 | 0.00 | 51 | 1018.4 |
| 20260506174104 | 20 | 327 | 4.8 | 9.7 | 0.00 | 0.00 | 0.00 | 48 | 1018.4 |
| 20260506173602 | 20 | 181 | 4.8 | 4.8 | 0.00 | 0.00 | 0.00 | 49 | 1018.6 |
| 20260506173058 | 20 | 8 | 3.2 | 3.2 | 0.00 | 0.00 | 0.00 | 51 | 1018.5 |
| 20260506172556 | 18 | 309 | 3.2 | 4.8 | 0.00 | 0.00 | 0.00 | 52 | 1018.5 |
| 20260506172052 | 18 | 96 | 1.6 | 3.2 | 0.00 | 0.00 | 0.00 | 52 | 1018.8 |
| 20260506171549 | 19 | 36 | 1.6 | 3.2 | 0.00 | 0.00 | 0.00 | 52 | 1018.7 |
| 20260506171046 | 19 | 332 | 4.8 | 8.0 | 0.00 | 0.00 | 0.00 | 51 | 1018.7 |
| 20260506170538 | 18 | 65 | 1.6 | 1.6 | 0.00 | 0.00 | 0.00 | 51 | 1018.7 |
| 20260506170036 | 18 | 63 | 3.2 | 3.2 | 0.00 | 0.00 | 0.00 | 53 | 1018.9 |
| 20260506165534 | 18 | 170 | 3.2 | 3.2 | 0.00 | 0.00 | 0.00 | 52 | 1018.8 |
| 20260506165030 | 19 | 301 | 3.2 | 3.2 | 0.00 | 0.00 | 0.00 | 52 | 1018.7 |
| 20260506164527 | 18 | 70 | 0.0 | 1.6 | 0.00 | 0.00 | 0.00 | 53 | 1018.9 |
| 20260506164024 | 18 | 50 | 1.6 | 1.6 | 0.00 | 0.00 | 0.00 | 56 | 1018.9 |
| 20260506163520 | 18 | 68 | 3.2 | 3.2 | 0.00 | 0.00 | 0.00 | 56 | 1018.8 |
| 20260506163016 | 18 | 40 | 4.8 | 8.0 | 0.00 | 0.00 | 0.00 | 59 | 1018.8 |
| 20260506162512 | 17 | 91 | 1.6 | 1.6 | 0.00 | 0.00 | 0.00 | 62 | 1018.9 |
| 20260506162010 | 17 | 108 | 1.6 | 1.6 | 0.00 | 0.00 | 0.00 | 64 | 1018.7 |
| 20260506161507 | 16 | 224 | 3.2 | 3.2 | 0.00 | 0.00 | 0.00 | 67 | 1018.6 |
| 20260506161004 | 17 | 228 | 4.8 | 4.8 | 0.00 | 0.00 | 0.00 | 64 | 1018.8 |
| 20260506160502 | 17 | 316 | 1.6 | 3.2 | 0.00 | 0.00 | 0.00 | 65 | 1018.7 |
| 20260506155958 | 16 | 41 | 1.6 | 1.6 | 0.00 | 0.00 | 0.00 | 65 | 1018.6 |
| 20260506155456 | 16 | 55 | 0.0 | 0.0 | 0.00 | 0.00 | 0.00 | 66 | 1018.8 |
| 20260506153628 | 16 | 67 | 1.6 | 1.6 | 0.00 | 0.00 | 0.00 | 67 | 1018.8 |
| 20260506153126 | 16 | 83 | 0.0 | 1.6 | 0.00 | 0.00 | 0.00 | 69 | 1018.9 |
| 20260506152622 | 16 | 76 | 0.0 | 0.0 | 0.00 | 0.00 | 0.00 | 67 | 1019.1 |
| 20260506152120 | 16 | 84 | 0.0 | 0.0 | 0.00 | 0.00 | 0.00 | 69 | 1018.8 |
| 20260506151619 | 15 | 152 | 0.0 | 0.0 | 0.00 | 0.00 | 0.00 | 69 | 1018.7 |
| 20260506151115 | 15 | 79 | 0.0 | 0.0 | 0.00 | 0.00 | 0.00 | 71 | 1018.9 |
| 20260506150612 | 14 | 124 | 0.0 | 0.0 | 0.00 | 0.00 | 0.00 | 75 | 1018.9 |
| 20260506150109 | 13 | 82 | 0.0 | 0.0 | 0.00 | 0.00 | 0.00 | 79 | 1018.9 |
| 20260506145606 | 12 | 110 | 0.0 | 0.0 | 0.00 | 0.00 | 0.00 | 82 | 1018.9 |
| 20260506145103 | 11 | 88 | 0.0 | 0.0 | 0.00 | 0.00 | 0.00 | 85 | 1019.0 |
| 20260506144600 | 11 | 65 | 0.0 | 0.0 | 0.00 | 0.00 | 0.00 | 88 | 1018.9 |
| 20260506144056 | 11 | 51 | 0.0 | 0.0 | 0.00 | 0.00 | 0.00 | 92 | 1018.8 |
| 20260506143555 | 11 | 141 | 0.0 | 0.0 | 0.00 | 0.00 | 0.00 | 93 | 1018.9 |
| 20260506143052 | 10 | 157 | 0.0 | 0.0 | 0.00 | 0.00 | 0.00 | 93 | 1019.0 |
| 20260506142550 | 10 | 131 | 0.0 | 0.0 | 0.00 | 0.00 | 0.00 | 93 | 1018.8 |
| 20260506142048 | 10 | 146 | 0.0 | 0.0 | 0.00 | 0.00 | 0.00 | 93 | 1018.8 |